Location: Goettingen
(51.5300°N, 9.9433°E)
Time: 00:46:34
(UTC+02:00)

ISS - Pass Details

Date: 27 May 2017
Orbit: 402 x 408 km, 51.6° (Epoch: 30 May)

Event Time Altitude Azimuth Distance (km) Brightness Sun altitude
Rises 00:56:19 0° 274° (W) 2,334 0.2 -17.0°
Reaches altitude 10° 00:58:24 10° 275° (W) 1,471 -0.9 -17.1°
Maximum altitude 01:01:42 88° 1° (N) 412 -3.9 -17.1°
Drops below altitude 10° 01:05:00 10° 95° (E) 1,466 -1.1 -17.1°
Sets 01:07:05 0° 96° (E) 2,325 -0.1 -17.1°
